THEMIS D

Last updated on Jan. 23, 2021, 7:12 a.m. UTC

1 30797U 07004D   21022.23486220 -.00000583  00000-0  00000-0 0  9998
2 30797  13.7721  12.8555 8371368  88.7328 353.6766  0.87837210 23745
UTC
Height (km)
Latitude
Longitude
Inclination
Orbital Period
UTC large
Height (km)
Speed (km/s)
/
Latitude / Longitude
Inclination (degrees)
Orbital Period (minutes)
Azimuth
Elevation
Range (km)
Doppler Factor
iOS Compass Heading
iOS Angle

Next 30 passes for location: Hong Kong

Rise time Rise Azimuth (degrees) Set time Set Azimuth (degrees) Duration Max altitude (degrees)

No matching passes for this satellites